GFSNGP_500_temp_228.txt.gz
Temp
-23 -23 -23 -22 -22 -21 -21 -20 -20 -19 -19 -18 -16 -15 -14 -14 -13 -12 -12 -12 -12 -12 -12 -12 -12 -11 -11 -11 -10 -10 -10 -10 -10 -10 -10 -10 -10 -10 -10 -10 -11 -11 -11 -10
-23 -23 -23 -23 -23 -23 -22 -21 -21 -20 -19 -19 -17 -16 -15 -14 -14 -14 -13 -13 -13 -13 -13 -13 -13 -12 -12 -12 -11 -11 -11 -10 -10 -10 -10 -10 -11 -10 -11 -11 -11 -11 -11 -11
-23 -24 -24 -23 -22 -23 -23 -22 -22 -21 -20 -19 -19 -18 -17 -16 -15 -14 -14 -14 -14 -14 -14 -14 -14 -14 -13 -12 -13 -12 -12 -11 -11 -11 -11 -11 -12 -12 -12 -12 -12 -12 -12 -12
-23 -24 -24 -23 -23 -23 -23 -23 -22 -22 -22 -21 -20 -18 -18 -17 -16 -16 -15 -14 -13 -14 -15 -15 -14 -14 -14 -13 -13 -13 -13 -12 -12 -11 -11 -12 -13 -13 -13 -13 -12 -12 -12 -12
-24 -24 -24 -24 -22 -23 -23 -23 -23 -23 -22 -21 -21 -20 -19 -19 -19 -18 -17 -16 -15 -16 -14 -15 -15 -15 -14 -14 -14 -14 -13 -13 -13 -13 -13 -13 -13 -13 -13 -12 -12 -13 -13 -13
-25 -25 -24 -23 -23 -24 -23 -23 -22 -22 -23 -23 -22 -22 -21 -20 -20 -19 -19 -18 -18 -18 -16 -15 -15 -16 -15 -14 -14 -13 -14 -14 -14 -13 -13 -13 -13 -12 -12 -12 -12 -13 -13 -13
-26 -25 -25 -24 -24 -24 -24 -23 -23 -25 -24 -23 -23 -22 -21 -21 -20 -20 -20 -19 -19 -18 -18 -18 -17 -16 -16 -15 -14 -14 -14 -14 -14 -14 -13 -13 -13 -13 -13 -12 -13 -13 -13 -13
-25 -25 -25 -25 -24 -25 -25 -24 -24 -23 -23 -23 -23 -22 -22 -21 -21 -20 -20 -20 -20 -19 -18 -18 -17 -17 -16 -16 -15 -15 -15 -14 -14 -14 -14 -14 -14 -14 -14 -14 -14 -14 -14 -14
-26 -25 -26 -26 -25 -25 -25 -25 -25 -24 -24 -24 -23 -23 -22 -21 -21 -21 -21 -21 -22 -20 -19 -19 -18 -17 -17 -16 -16 -16 -15 -15 -15 -15 -15 -15 -15 -15 -15 -14 -14 -14 -14 -14
-26 -26 -26 -26 -26 -26 -26 -25 -25 -25 -24 -24 -23 -23 -22 -22 -21 -21 -21 -21 -21 -21 -20 -20 -19 -19 -18 -18 -17 -16 -15 -15 -16 -15 -16 -16 -15 -15 -15 -15 -14 -14 -15 -15
-26 -26 -27 -26 -26 -26 -26 -25 -25 -25 -25 -24 -24 -23 -23 -23 -22 -21 -21 -21 -20 -20 -20 -20 -20 -20 -20 -19 -18 -17 -16 -16 -16 -15 -15 -16 -16 -16 -15 -15 -15 -15 -16 -16
-26 -27 -28 -26 -26 -26 -26 -26 -25 -25 -24 -25 -25 -24 -23 -23 -22 -22 -22 -22 -21 -20 -19 -19 -20 -19 -20 -20 -19 -18 -17 -17 -16 -16 -16 -16 -16 -16 -16 -16 -16 -16 -16 -16
-26 -27 -27 -26 -27 -26 -26 -25 -25 -25 -24 -24 -25 -24 -24 -23 -23 -23 -22 -22 -22 -21 -21 -20 -20 -19 -20 -19 -19 -19 -19 -18 -17 -17 -17 -17 -16 -16 -17 -17 -16 -16 -17 -17
-26 -27 -27 -26 -26 -26 -26 -25 -25 -25 -24 -24 -24 -24 -24 -23 -23 -23 -23 -22 -22 -22 -22 -22 -21 -19 -20 -19 -19 -19 -19 -19 -18 -18 -17 -17 -17 -17 -17 -17 -17 -17 -16 -16
-26 -26 -26 -26 -26 -26 -26 -25 -25 -24 -24 -24 -23 -23 -23 -23 -22 -22 -22 -23 -23 -22 -22 -22 -22 -21 -21 -20 -20 -19 -18 -18 -18 -19 -18 -18 -17 -17 -17 -17 -17 -17 -18 -17
-26 -26 -26 -26 -26 -26 -25 -25 -24 -24 -24 -24 -23 -23 -22 -21 -21 -21 -21 -22 -22 -22 -22 -22 -23 -22 -22 -22 -21 -20 -19 -18 -18 -18 -19 -18 -18 -17 -17 -17 -17 -17 -17 -17
-26 -26 -26 -26 -26 -25 -25 -25 -25 -25 -24 -23 -23 -21 -21 -20 -20 -20 -20 -21 -21 -22 -22 -22 -22 -22 -23 -22 -22 -21 -20 -20 -19 -18 -18 -18 -18 -18 -18 -18 -18 -17 -18 -18
-26 -26 -26 -26 -25 -25 -25 -25 -25 -24 -24 -24 -23 -21 -20 -20 -20 -20 -20 -20 -21 -21 -22 -22 -22 -22 -22 -22 -22 -21 -21 -19 -18 -18 -18 -18 -18 -18 -18 -18 -18 -18 -17 -17
-26 -26 -26 -26 -26 -25 -25 -25 -25 -24 -24 -24 -23 -21 -21 -20 -20 -20 -21 -21 -22 -22 -22 -23 -22 -23 -22 -22 -22 -22 -21 -20 -18 -19 -18 -18 -18 -18 -18 -18 -17 -17 -17 -17
-26 -26 -26 -26 -26 -26 -25 -24 -24 -24 -24 -24 -23 -22 -21 -21 -22 -22 -22 -23 -23 -24 -23 -23 -23 -23 -23 -22 -22 -21 -21 -20 -19 -19 -18 -18 -18 -17 -17 -16 -17 -17 -18 -17
-26 -26 -26 -27 -27 -26 -25 -25 -24 -24 -24 -24 -23 -23 -22 -22 -22 -23 -23 -23 -24 -23 -23 -23 -23 -23 -23 -22 -21 -22 -21 -20 -18 -19 -18 -18 -18 -17 -18 -18 -18 -18 -19 -19
-26 -26 -26 -27 -27 -27 -26 -25 -24 -24 -24 -24 -24 -23 -23 -23 -23 -23 -23 -23 -23 -23 -23 -23 -23 -23 -22 -22 -22 -22 -22 -20 -18 -18 -19 -17 -18 -18 -19 -20 -19 -19 -19 -20
-27 -27 -27 -27 -27 -27 -27 -26 -25 -25 -24 -24 -24 -24 -23 -23 -23 -23 -23 -23 -23 -23 -23 -22 -23 -23 -22 -22 -22 -22 -22 -22 -21 -21 -20 -20 -20 -20 -20 -20 -20 -20 -21 -20
-28 -28 -27 -27 -28 -28 -27 -27 -26 -26 -25 -24 -24 -24 -24 -24 -23 -23 -23 -23 -23 -23 -23 -23 -23 -23 -22 -22 -22 -22 -21 -21 -21 -20 -21 -21 -21 -21 -21 -21 -21 -21 -21 -21
-28 -28 -28 -28 -28 -28 -28 -27 -27 -26 -26 -25 -25 -24 -24 -24 -24 -24 -23 -23 -23 -23 -23 -22 -22 -22 -22 -22 -22 -22 -21 -21 -21 -21 -21 -21 -21 -21 -22 -22 -21 -21 -22 -22
-28 -28 -28 -28 -28 -28 -28 -28 -28 -27 -27 -26 -26 -26 -25 -25 -24 -24 -23 -24 -24 -23 -23 -23 -23 -22 -23 -22 -22 -22 -22 -22 -22 -22 -22 -22 -22 -22 -23 -23 -23 -24 -25 -25
-29 -28 -28 -28 -28 -28 -28 -28 -28 -28 -28 -27 -27 -27 -27 -27 -26 -26 -25 -25 -24 -24 -24 -23 -23 -23 -23 -23 -22 -22 -23 -23 -23 -23 -24 -24 -24 -25 -25 -26 -26 -26 -26 -26

GFSNGP_500_temp_231.txt.gz
Temp
-23 -22 -21 -22 -22 -22 -21 -20 -20 -20 -20 -19 -18 -18 -17 -15 -14 -14 -14 -14 -13 -13 -12 -13 -12 -12 -12 -11 -11 -11 -11 -11 -10 -10 -10 -10 -10 -10 -10 -10 -10 -10 -10 -10
-23 -23 -23 -22 -23 -22 -22 -21 -21 -20 -20 -19 -18 -18 -18 -17 -16 -16 -15 -15 -14 -14 -14 -13 -13 -13 -12 -12 -12 -11 -11 -11 -11 -11 -10 -10 -10 -10 -10 -10 -10 -10 -11 -10
-23 -23 -23 -23 -22 -23 -23 -22 -22 -22 -21 -20 -20 -19 -18 -18 -17 -17 -16 -16 -15 -14 -15 -14 -13 -13 -13 -13 -12 -12 -12 -11 -11 -12 -11 -11 -11 -11 -11 -10 -11 -11 -11 -11
-24 -24 -23 -22 -23 -23 -23 -23 -23 -23 -23 -23 -20 -19 -19 -19 -18 -18 -19 -18 -17 -16 -15 -15 -15 -14 -13 -13 -13 -13 -13 -13 -12 -12 -12 -11 -11 -11 -11 -11 -11 -11 -11 -12
-23 -24 -23 -23 -23 -24 -25 -24 -24 -23 -23 -23 -22 -22 -21 -21 -20 -20 -20 -19 -18 -17 -16 -16 -15 -14 -14 -14 -13 -13 -13 -14 -13 -13 -12 -12 -12 -12 -11 -11 -12 -12 -12 -13
-25 -25 -24 -25 -25 -25 -24 -24 -24 -24 -24 -23 -23 -22 -22 -22 -23 -21 -21 -20 -18 -18 -17 -17 -16 -16 -15 -15 -14 -13 -14 -14 -14 -14 -13 -13 -13 -13 -13 -12 -13 -13 -13 -13
-25 -25 -25 -25 -25 -24 -25 -24 -24 -24 -24 -24 -24 -23 -22 -22 -21 -21 -21 -20 -20 -20 -19 -18 -18 -17 -16 -15 -15 -15 -14 -14 -14 -14 -13 -13 -13 -13 -13 -13 -13 -13 -13 -13
-25 -25 -24 -25 -25 -25 -25 -24 -25 -24 -24 -24 -24 -24 -23 -23 -22 -22 -22 -21 -21 -21 -20 -20 -20 -19 -18 -17 -17 -16 -16 -15 -15 -14 -14 -14 -14 -13 -13 -14 -14 -14 -14 -14
-25 -24 -25 -24 -24 -25 -25 -25 -25 -25 -25 -25 -24 -24 -24 -23 -22 -22 -22 -22 -21 -21 -21 -21 -21 -20 -19 -19 -18 -18 -17 -17 -17 -16 -15 -15 -14 -14 -14 -14 -14 -14 -15 -15
-25 -25 -25 -25 -25 -25 -25 -25 -25 -25 -25 -25 -25 -25 -24 -24 -23 -23 -22 -22 -22 -21 -21 -21 -21 -21 -21 -20 -19 -18 -18 -18 -18 -17 -16 -16 -16 -16 -15 -14 -14 -15 -15 -15
-25 -25 -26 -25 -26 -26 -26 -26 -25 -26 -26 -25 -25 -25 -24 -24 -24 -23 -23 -23 -23 -22 -22 -21 -21 -21 -21 -21 -21 -19 -18 -18 -18 -17 -17 -16 -16 -16 -16 -16 -15 -14 -15 -15
-24 -25 -25 -24 -25 -25 -26 -27 -27 -26 -25 -25 -25 -25 -24 -24 -24 -24 -23 -23 -23 -23 -22 -22 -22 -21 -21 -21 -21 -20 -20 -19 -18 -18 -18 -17 -17 -16 -16 -16 -16 -15 -14 -14
-25 -25 -25 -25 -26 -27 -27 -27 -26 -26 -25 -25 -25 -25 -25 -24 -24 -24 -24 -24 -23 -23 -23 -23 -22 -21 -21 -21 -20 -20 -20 -20 -19 -18 -18 -18 -18 -17 -17 -16 -16 -16 -16 -16
-25 -25 -25 -25 -26 -26 -27 -26 -26 -26 -26 -25 -25 -25 -25 -24 -24 -24 -24 -24 -24 -23 -22 -23 -22 -22 -22 -22 -21 -20 -19 -19 -20 -19 -19 -19 -18 -18 -17 -17 -17 -17 -17 -17
-25 -25 -25 -25 -26 -26 -26 -26 -26 -26 -25 -25 -25 -25 -24 -24 -23 -23 -23 -23 -23 -23 -22 -22 -22 -22 -22 -23 -22 -22 -20 -19 -19 -19 -19 -19 -19 -18 -18 -17 -17 -17 -18 -18
-25 -25 -25 -26 -25 -25 -26 -26 -26 -25 -25 -25 -25 -24 -24 -23 -23 -22 -21 -22 -22 -22 -22 -22 -22 -22 -23 -22 -22 -23 -22 -21 -20 -19 -19 -19 -19 -19 -19 -18 -18 -18 -18 -18
-25 -25 -26 -25 -26 -26 -26 -26 -25 -25 -25 -25 -24 -23 -24 -23 -21 -21 -21 -20 -20 -20 -21 -21 -22 -22 -23 -23 -22 -22 -23 -22 -21 -20 -19 -19 -19 -19 -19 -19 -18 -18 -18 -18
-25 -25 -25 -26 -26 -26 -26 -25 -25 -25 -25 -24 -24 -24 -23 -22 -22 -21 -21 -20 -20 -20 -20 -21 -21 -21 -22 -22 -22 -23 -23 -23 -22 -22 -20 -19 -19 -19 -19 -19 -18 -18 -19 -18
-26 -25 -25 -25 -26 -26 -26 -26 -25 -25 -25 -24 -24 -24 -23 -22 -22 -22 -22 -22 -22 -22 -22 -21 -21 -22 -22 -22 -22 -23 -23 -22 -22 -22 -21 -20 -19 -19 -19 -19 -19 -19 -18 -18
-26 -26 -26 -26 -26 -26 -26 -26 -25 -25 -25 -24 -24 -24 -23 -22 -22 -23 -23 -23 -23 -23 -23 -23 -22 -22 -22 -23 -22 -22 -23 -23 -23 -22 -22 -20 -19 -19 -19 -19 -19 -19 -19 -18
-27 -26 -26 -26 -26 -26 -27 -26 -26 -25 -25 -25 -24 -24 -24 -23 -23 -23 -23 -23 -24 -24 -24 -24 -23 -23 -23 -23 -23 -23 -23 -23 -22 -22 -22 -21 -20 -20 -20 -19 -19 -19 -17 -17
-27 -27 -27 -26 -26 -26 -27 -27 -26 -26 -25 -25 -25 -24 -24 -24 -23 -23 -23 -23 -23 -24 -24 -24 -24 -23 -23 -23 -23 -23 -23 -23 -23 -23 -22 -22 -21 -21 -20 -19 -19 -18 -18 -18
-27 -27 -27 -27 -27 -27 -27 -27 -27 -26 -26 -25 -25 -25 -24 -24 -24 -24 -24 -23 -23 -23 -24 -24 -23 -23 -23 -23 -23 -23 -23 -23 -23 -22 -22 -22 -21 -21 -21 -21 -21 -20 -21 -21
-28 -28 -28 -28 -27 -27 -28 -28 -27 -27 -26 -26 -25 -25 -25 -25 -25 -24 -24 -24 -24 -24 -24 -24 -24 -23 -23 -23 -23 -23 -22 -22 -22 -22 -22 -21 -21 -22 -22 -21 -21 -21 -21 -21
-28 -28 -28 -28 -28 -28 -28 -28 -28 -28 -27 -27 -26 -26 -26 -25 -25 -25 -25 -24 -24 -24 -24 -24 -25 -24 -24 -24 -24 -23 -23 -23 -23 -23 -23 -22 -22 -21 -21 -21 -21 -21 -21 -22
-28 -28 -28 -28 -28 -28 -28 -28 -28 -28 -28 -28 -27 -27 -27 -26 -26 -26 -26 -25 -24 -24 -24 -24 -24 -24 -24 -24 -23 -23 -23 -22 -22 -22 -22 -22 -22 -22 -22 -22 -23 -23 -23 -23
-29 -28 -28 -29 -29 -29 -28 -28 -28 -28 -28 -28 -28 -28 -27 -27 -27 -27 -27 -27 -27 -26 -25 -25 -25 -24 -24 -24 -24 -24 -24 -24 -24 -24 -24 -24 -24 -24 -24 -24 -24 -25 -25 -25

GFSNGP_500_temp_237.txt.gz
Temp
-21 -21 -22 -22 -22 -22 -22 -22 -22 -22 -21 -19 -19 -19 -19 -18 -18 -17 -18 -16 -17 -17 -17 -17 -16 -16 -16 -16 -15 -14 -13 -13 -13 -13 -13 -12 -11 -11 -11 -11 -10 -10 -10 -10
-21 -22 -22 -21 -21 -21 -22 -22 -22 -22 -21 -21 -20 -21 -20 -19 -18 -18 -17 -17 -17 -16 -16 -16 -16 -16 -16 -15 -15 -14 -14 -14 -14 -13 -13 -13 -13 -13 -12 -11 -11 -11 -11 -11
-21 -21 -21 -22 -22 -22 -22 -22 -22 -22 -22 -21 -21 -20 -21 -21 -20 -18 -18 -17 -17 -17 -17 -17 -17 -16 -16 -16 -15 -15 -14 -14 -14 -14 -13 -13 -13 -13 -13 -13 -13 -12 -12 -11
-20 -21 -22 -22 -22 -22 -22 -22 -22 -22 -21 -22 -22 -22 -22 -21 -21 -21 -20 -19 -19 -18 -17 -17 -17 -17 -17 -17 -17 -16 -16 -15 -14 -14 -15 -14 -13 -13 -13 -13 -13 -13 -12 -12
-20 -21 -21 -23 -23 -23 -23 -24 -23 -23 -23 -22 -22 -22 -22 -22 -22 -21 -21 -20 -20 -20 -20 -20 -19 -19 -18 -18 -18 -18 -17 -16 -16 -15 -15 -15 -14 -13 -13 -13 -13 -13 -12 -12
-21 -21 -21 -22 -22 -24 -24 -24 -24 -23 -23 -23 -23 -22 -22 -22 -23 -23 -22 -21 -21 -21 -21 -21 -21 -21 -21 -20 -20 -19 -18 -18 -17 -16 -16 -16 -15 -14 -14 -14 -14 -13 -13 -12
-22 -22 -22 -23 -23 -23 -24 -24 -24 -24 -24 -24 -24 -23 -23 -23 -23 -23 -23 -23 -22 -22 -22 -21 -21 -21 -21 -21 -21 -20 -20 -18 -18 -18 -17 -16 -16 -15 -15 -14 -14 -14 -14 -13
-22 -22 -22 -24 -24 -24 -24 -24 -24 -24 -24 -24 -24 -23 -23 -23 -23 -23 -23 -23 -23 -23 -23 -23 -23 -22 -22 -22 -21 -21 -20 -20 -19 -18 -18 -18 -17 -16 -16 -15 -15 -14 -14 -14
-22 -22 -23 -24 -24 -25 -24 -24 -24 -24 -24 -24 -24 -23 -24 -24 -24 -24 -24 -24 -24 -23 -23 -22 -23 -23 -23 -22 -22 -22 -22 -22 -21 -20 -19 -18 -18 -18 -17 -16 -16 -15 -15 -14
-22 -23 -23 -23 -24 -25 -25 -25 -25 -24 -24 -24 -24 -24 -24 -24 -24 -24 -24 -24 -24 -24 -24 -23 -23 -24 -24 -23 -23 -23 -22 -22 -22 -22 -21 -20 -19 -19 -19 -18 -17 -16 -15 -15
-22 -23 -23 -23 -24 -24 -25 -25 -24 -25 -25 -25 -25 -25 -25 -24 -24 -25 -24 -24 -24 -24 -24 -24 -24 -24 -24 -24 -24 -24 -23 -22 -22 -22 -22 -22 -21 -21 -20 -19 -19 -19 -17 -16
-22 -23 -23 -23 -24 -24 -25 -25 -25 -25 -24 -25 -25 -25 -25 -26 -26 -26 -25 -25 -25 -24 -24 -24 -24 -24 -24 -24 -24 -24 -24 -23 -23 -22 -22 -21 -21 -21 -20 -20 -20 -19 -19 -19
-22 -22 -23 -23 -23 -24 -24 -24 -24 -24 -24 -24 -24 -25 -25 -25 -26 -25 -25 -25 -24 -24 -24 -24 -24 -24 -24 -24 -24 -24 -24 -24 -23 -23 -22 -22 -21 -21 -20 -21 -22 -20 -19 -19
-22 -23 -23 -23 -24 -24 -25 -25 -24 -24 -24 -24 -24 -24 -25 -25 -25 -25 -25 -25 -24 -24 -23 -23 -23 -23 -23 -23 -23 -23 -24 -24 -24 -24 -23 -22 -22 -21 -20 -20 -22 -21 -20 -20
-23 -24 -24 -24 -24 -24 -25 -25 -25 -24 -24 -24 -24 -24 -25 -25 -25 -25 -24 -24 -24 -23 -23 -23 -23 -23 -22 -22 -21 -21 -22 -23 -24 -24 -24 -23 -23 -22 -21 -20 -21 -21 -21 -21
-23 -23 -24 -24 -24 -25 -25 -25 -25 -24 -24 -24 -24 -24 -24 -24 -24 -24 -24 -24 -23 -23 -23 -23 -23 -23 -22 -22 -21 -21 -21 -22 -23 -24 -24 -23 -23 -23 -22 -22 -21 -21 -21 -21
-24 -24 -24 -25 -25 -25 -25 -25 -25 -25 -25 -24 -24 -24 -24 -24 -24 -24 -24 -24 -24 -23 -23 -23 -23 -23 -22 -21 -20 -21 -20 -22 -23 -24 -24 -23 -23 -23 -23 -23 -22 -21 -21 -21
-24 -24 -25 -25 -25 -25 -25 -25 -25 -25 -25 -25 -25 -24 -24 -24 -24 -24 -24 -24 -24 -24 -23 -23 -23 -23 -23 -22 -21 -21 -21 -22 -23 -24 -24 -23 -23 -23 -24 -24 -23 -22 -22 -21
-25 -25 -25 -26 -26 -26 -26 -26 -26 -26 -25 -25 -25 -25 -24 -25 -25 -24 -24 -24 -23 -24 -24 -24 -24 -23 -23 -23 -23 -22 -22 -22 -23 -24 -24 -23 -23 -23 -23 -23 -23 -23 -22 -22
-26 -26 -26 -26 -26 -26 -26 -26 -26 -26 -26 -26 -25 -25 -25 -25 -25 -25 -24 -24 -23 -24 -24 -24 -24 -23 -23 -24 -24 -24 -23 -23 -23 -23 -23 -23 -23 -23 -23 -23 -23 -23 -23 -23
-26 -26 -26 -27 -27 -27 -27 -27 -27 -27 -26 -26 -26 -26 -26 -26 -26 -25 -25 -24 -24 -24 -24 -24 -24 -24 -23 -24 -24 -23 -23 -23 -24 -23 -23 -23 -23 -23 -23 -23 -23 -23 -23 -23
-27 -27 -27 -27 -27 -27 -27 -27 -27 -27 -27 -27 -26 -26 -27 -27 -26 -25 -25 -25 -25 -24 -25 -24 -24 -24 -24 -24 -24 -24 -24 -24 -23 -23 -24 -24 -24 -23 -23 -23 -23 -24 -23 -23
-28 -28 -28 -28 -28 -28 -28 -28 -28 -28 -27 -27 -27 -27 -27 -27 -27 -27 -26 -25 -25 -25 -25 -24 -25 -24 -24 -24 -24 -24 -24 -24 -24 -24 -24 -23 -23 -23 -23 -23 -23 -23 -23 -23
-29 -29 -29 -29 -29 -29 -29 -28 -28 -28 -28 -28 -28 -28 -28 -27 -27 -27 -26 -26 -26 -25 -25 -25 -25 -25 -25 -24 -24 -24 -24 -24 -24 -24 -23 -23 -23 -23 -23 -23 -23 -23 -23 -23
-30 -30 -30 -30 -29 -29 -29 -29 -28 -28 -28 -28 -28 -28 -28 -28 -28 -28 -28 -28 -28 -27 -26 -26 -25 -25 -25 -25 -25 -24 -24 -24 -24 -24 -24 -24 -24 -24 -24 -24 -23 -23 -23 -23
-30 -30 -30 -30 -30 -29 -29 -29 -29 -29 -28 -29 -28 -28 -28 -28 -28 -28 -28 -28 -28 -28 -28 -28 -27 -26 -26 -26 -26 -26 -25 -25 -25 -25 -25 -25 -25 -25 -25 -25 -24 -24 -24 -24
-31 -30 -30 -30 -30 -30 -30 -29 -29 -29 -29 -29 -29 -29 -29 -29 -28 -28 -28 -28 -28 -28 -28 -28 -28 -28 -27 -27 -26 -26 -26 -26 -26 -26 -26 -26 -26 -26 -26 -26 -26 -26 -25 -25

GFSNGP_500_temp_240.txt.gz
Temp
-19 -19 -20 -21 -21 -22 -22 -22 -22 -22 -21 -21 -21 -21 -20 -20 -19 -18 -18 -18 -17 -16 -17 -15 -15 -16 -16 -15 -15 -15 -15 -15 -14 -14 -14 -13 -13 -13 -14 -12 -12 -12 -11 -11
-20 -19 -19 -20 -21 -22 -22 -22 -22 -22 -22 -21 -21 -22 -21 -19 -20 -20 -18 -18 -17 -16 -16 -16 -17 -16 -16 -16 -15 -15 -15 -15 -15 -15 -14 -14 -14 -14 -13 -14 -14 -13 -13 -12
-19 -20 -20 -20 -20 -20 -21 -21 -21 -21 -21 -21 -21 -22 -22 -21 -20 -20 -20 -19 -18 -18 -17 -17 -16 -17 -16 -17 -17 -17 -16 -16 -15 -14 -14 -14 -14 -14 -14 -14 -14 -13 -13 -13
-19 -19 -20 -20 -20 -21 -21 -21 -22 -22 -21 -21 -21 -22 -22 -21 -21 -20 -21 -21 -21 -19 -18 -17 -17 -17 -16 -17 -17 -16 -16 -16 -16 -16 -15 -15 -15 -15 -14 -14 -14 -13 -13 -13
-19 -19 -20 -20 -21 -22 -22 -22 -22 -22 -22 -22 -21 -22 -22 -22 -21 -21 -21 -20 -20 -21 -19 -20 -18 -18 -18 -18 -18 -17 -17 -16 -17 -16 -16 -16 -16 -16 -15 -14 -14 -14 -14 -13
-20 -19 -19 -20 -21 -22 -22 -22 -22 -22 -22 -22 -23 -23 -22 -23 -24 -24 -22 -22 -22 -22 -21 -21 -21 -22 -21 -20 -18 -19 -19 -17 -17 -17 -17 -17 -16 -16 -16 -16 -15 -14 -14 -14
-20 -19 -20 -20 -21 -22 -22 -22 -23 -23 -23 -23 -23 -23 -23 -23 -23 -24 -24 -24 -23 -23 -23 -22 -22 -21 -20 -20 -19 -20 -20 -20 -19 -17 -17 -17 -17 -17 -17 -16 -16 -16 -15 -14
-20 -20 -20 -21 -21 -22 -22 -22 -23 -23 -24 -24 -24 -24 -24 -24 -24 -24 -24 -24 -24 -23 -23 -23 -23 -22 -22 -22 -22 -21 -21 -21 -21 -21 -20 -19 -18 -18 -18 -18 -18 -17 -16 -15
-20 -21 -21 -21 -21 -22 -22 -22 -23 -23 -24 -24 -24 -24 -24 -24 -24 -23 -24 -24 -23 -23 -23 -23 -23 -23 -23 -23 -22 -22 -22 -22 -22 -22 -21 -20 -20 -19 -19 -19 -18 -18 -18 -17
-20 -22 -21 -21 -22 -23 -23 -23 -23 -24 -24 -24 -24 -24 -24 -24 -24 -24 -24 -24 -24 -24 -24 -23 -23 -23 -23 -22 -22 -23 -22 -22 -22 -22 -22 -22 -22 -21 -20 -20 -19 -18 -18 -18
-22 -22 -21 -22 -22 -22 -23 -23 -23 -24 -24 -24 -24 -24 -24 -24 -23 -24 -24 -25 -25 -25 -25 -24 -23 -23 -23 -22 -22 -22 -22 -22 -22 -22 -22 -22 -22 -22 -22 -21 -21 -20 -19 -18
-21 -21 -21 -22 -22 -23 -23 -23 -24 -24 -25 -25 -25 -24 -24 -24 -24 -24 -24 -24 -24 -25 -25 -24 -24 -24 -23 -23 -23 -22 -22 -22 -22 -22 -22 -22 -22 -22 -22 -21 -21 -21 -21 -20
-21 -21 -22 -22 -22 -23 -23 -23 -23 -24 -24 -24 -24 -24 -24 -24 -24 -23 -24 -24 -24 -24 -24 -24 -24 -23 -23 -23 -22 -22 -22 -22 -22 -22 -22 -23 -23 -23 -23 -23 -22 -21 -21 -21
-22 -21 -22 -22 -22 -23 -23 -24 -24 -24 -25 -25 -25 -24 -24 -24 -24 -23 -23 -23 -24 -24 -24 -24 -23 -22 -23 -23 -23 -23 -23 -23 -22 -22 -22 -23 -24 -24 -24 -23 -23 -23 -22 -21
-22 -22 -22 -22 -23 -23 -24 -24 -24 -25 -25 -25 -25 -25 -25 -24 -24 -24 -23 -23 -23 -24 -23 -24 -23 -23 -23 -23 -23 -23 -22 -22 -22 -22 -21 -21 -22 -24 -24 -24 -24 -23 -23 -22
-22 -23 -23 -23 -23 -23 -24 -25 -25 -25 -25 -25 -25 -25 -25 -25 -25 -24 -24 -23 -23 -23 -23 -23 -23 -23 -23 -23 -22 -22 -23 -23 -22 -21 -20 -20 -21 -23 -24 -24 -24 -23 -23 -23
-23 -24 -24 -23 -24 -24 -24 -25 -25 -25 -25 -26 -26 -26 -25 -25 -25 -24 -24 -24 -24 -24 -24 -23 -23 -23 -23 -23 -23 -23 -23 -22 -21 -21 -21 -21 -22 -24 -24 -24 -24 -24 -23 -23
-23 -24 -24 -24 -24 -24 -25 -25 -26 -26 -26 -26 -26 -26 -26 -25 -25 -25 -24 -25 -25 -24 -24 -24 -24 -23 -23 -23 -23 -23 -23 -22 -22 -21 -22 -22 -23 -24 -24 -24 -24 -24 -24 -24
-24 -24 -24 -25 -25 -26 -26 -26 -26 -26 -26 -26 -26 -26 -26 -26 -25 -25 -25 -25 -25 -24 -24 -24 -23 -24 -24 -23 -24 -23 -23 -23 -22 -23 -23 -23 -24 -24 -24 -24 -24 -24 -24 -24
-24 -25 -25 -25 -26 -26 -26 -26 -27 -27 -27 -27 -27 -27 -27 -26 -26 -26 -26 -26 -25 -24 -24 -24 -24 -24 -24 -24 -24 -23 -24 -24 -23 -23 -24 -24 -24 -24 -24 -24 -24 -24 -24 -23
-25 -26 -26 -26 -26 -27 -27 -28 -27 -27 -27 -27 -27 -27 -27 -27 -26 -27 -27 -26 -26 -25 -25 -24 -25 -24 -24 -24 -24 -23 -24 -24 -24 -24 -24 -24 -24 -24 -24 -24 -24 -24 -24 -24
-26 -27 -27 -27 -27 -28 -28 -28 -28 -28 -28 -28 -28 -28 -28 -27 -27 -27 -27 -27 -27 -26 -25 -24 -24 -25 -24 -24 -24 -24 -24 -24 -24 -24 -24 -24 -24 -24 -24 -24 -24 -24 -24 -24
-27 -27 -27 -28 -28 -29 -29 -29 -29 -29 -29 -28 -28 -28 -28 -28 -28 -28 -28 -28 -28 -28 -27 -26 -25 -24 -25 -25 -24 -24 -24 -24 -25 -25 -24 -24 -24 -24 -24 -24 -24 -24 -24 -24
-28 -28 -28 -29 -29 -29 -30 -30 -30 -29 -29 -29 -29 -29 -28 -28 -28 -28 -28 -28 -28 -28 -28 -28 -27 -26 -25 -25 -25 -25 -24 -24 -24 -24 -25 -24 -24 -24 -24 -24 -24 -24 -24 -24
-29 -29 -29 -29 -30 -30 -30 -30 -29 -29 -29 -29 -29 -29 -29 -29 -29 -29 -28 -28 -28 -28 -28 -28 -28 -28 -28 -27 -26 -26 -25 -25 -25 -24 -24 -24 -24 -24 -24 -24 -24 -24 -24 -24
-30 -30 -30 -30 -30 -30 -30 -30 -30 -30 -29 -30 -30 -29 -29 -29 -29 -29 -29 -29 -29 -28 -28 -28 -28 -28 -28 -28 -28 -27 -27 -26 -26 -25 -25 -25 -25 -25 -25 -25 -25 -25 -24 -24
-31 -31 -31 -31 -31 -30 -30 -30 -30 -30 -30 -30 -30 -30 -30 -29 -29 -29 -29 -29 -29 -29 -29 -29 -28 -28 -28 -28 -28 -28 -28 -28 -27 -27 -26 -26 -26 -26 -26 -26 -26 -26 -26 -26

GFSNGP_500_temp_243.txt.gz
Temp
-17 -18 -18 -19 -19 -20 -20 -21 -20 -22 -22 -22 -21 -21 -21 -20 -21 -21 -21 -19 -17 -17 -17 -17 -16 -16 -16 -16 -15 -15 -15 -15 -15 -14 -14 -13 -14 -14 -14 -14 -14 -14 -13 -13
-18 -18 -18 -18 -19 -20 -20 -20 -21 -21 -22 -22 -21 -21 -21 -20 -20 -20 -20 -20 -20 -18 -17 -18 -17 -17 -16 -16 -15 -14 -15 -15 -15 -15 -15 -15 -15 -15 -15 -15 -15 -15 -14 -13
-18 -18 -18 -18 -19 -20 -20 -20 -21 -21 -21 -22 -22 -21 -21 -21 -20 -20 -20 -21 -21 -20 -18 -17 -17 -17 -17 -17 -17 -16 -16 -15 -15 -15 -14 -14 -14 -15 -15 -15 -15 -15 -14 -14
-18 -19 -18 -19 -19 -19 -20 -21 -21 -21 -22 -22 -22 -22 -22 -22 -22 -21 -21 -21 -21 -20 -20 -19 -18 -17 -17 -17 -17 -17 -17 -17 -16 -16 -15 -15 -15 -15 -15 -16 -16 -16 -15 -15
-18 -18 -19 -19 -19 -20 -19 -20 -20 -21 -22 -22 -22 -22 -23 -23 -23 -23 -22 -21 -22 -21 -21 -21 -21 -20 -19 -18 -17 -17 -17 -17 -17 -17 -16 -16 -16 -16 -15 -15 -16 -16 -16 -15
-18 -18 -18 -19 -20 -20 -19 -20 -20 -21 -22 -22 -22 -22 -23 -23 -24 -24 -24 -24 -23 -23 -23 -22 -22 -20 -20 -20 -20 -19 -18 -17 -17 -17 -17 -17 -17 -17 -16 -16 -16 -16 -16 -16
-19 -18 -19 -19 -20 -20 -20 -20 -21 -21 -21 -22 -22 -23 -23 -23 -23 -24 -24 -24 -23 -23 -23 -23 -23 -23 -22 -21 -21 -22 -21 -19 -19 -19 -18 -17 -17 -17 -17 -17 -17 -17 -16 -16
-19 -19 -19 -19 -19 -19 -20 -21 -21 -21 -22 -22 -22 -23 -23 -23 -23 -23 -23 -23 -23 -23 -23 -23 -23 -23 -23 -23 -23 -22 -21 -21 -21 -21 -20 -20 -19 -18 -17 -17 -17 -17 -17 -17
-19 -19 -20 -19 -20 -20 -20 -20 -21 -21 -22 -22 -23 -23 -23 -24 -24 -24 -24 -23 -23 -23 -23 -23 -22 -22 -22 -22 -22 -23 -22 -22 -22 -21 -20 -20 -19 -18 -18 -18 -18 -18 -17 -17
-19 -21 -21 -20 -20 -20 -20 -21 -21 -21 -22 -22 -23 -23 -23 -24 -24 -24 -24 -23 -23 -23 -23 -23 -23 -24 -24 -22 -22 -22 -22 -22 -21 -21 -21 -20 -18 -18 -19 -20 -20 -20 -18 -17
-20 -21 -20 -21 -20 -20 -21 -21 -22 -22 -22 -23 -23 -23 -23 -24 -24 -24 -24 -23 -23 -23 -23 -23 -24 -24 -24 -24 -24 -23 -21 -21 -21 -21 -21 -20 -21 -21 -21 -21 -21 -21 -20 -19
-21 -21 -21 -21 -21 -21 -21 -21 -22 -22 -23 -23 -23 -23 -24 -24 -24 -24 -24 -23 -23 -23 -23 -23 -23 -24 -24 -23 -23 -23 -22 -22 -22 -22 -21 -21 -21 -21 -21 -21 -21 -21 -21 -21
-21 -21 -21 -21 -21 -22 -21 -22 -22 -23 -23 -24 -24 -24 -24 -24 -24 -24 -24 -24 -24 -23 -23 -23 -22 -23 -23 -23 -23 -22 -21 -22 -22 -22 -22 -22 -21 -21 -21 -21 -21 -22 -22 -23
-21 -21 -22 -21 -22 -22 -22 -22 -23 -23 -23 -24 -24 -24 -24 -24 -25 -25 -24 -24 -24 -24 -23 -22 -22 -23 -23 -23 -23 -22 -22 -22 -22 -22 -22 -22 -22 -21 -21 -21 -22 -22 -22 -23
-22 -21 -22 -22 -22 -22 -22 -22 -23 -23 -24 -24 -24 -24 -24 -25 -25 -25 -25 -25 -24 -24 -23 -23 -22 -23 -23 -23 -23 -23 -23 -23 -22 -22 -22 -22 -22 -22 -22 -21 -21 -22 -23 -23
-22 -22 -22 -22 -22 -22 -23 -23 -23 -24 -24 -25 -25 -25 -25 -25 -25 -25 -25 -25 -25 -24 -24 -24 -23 -23 -23 -23 -23 -23 -23 -23 -23 -23 -23 -22 -22 -22 -22 -21 -21 -22 -23 -24
-23 -22 -23 -22 -22 -23 -23 -23 -24 -24 -25 -25 -25 -26 -26 -26 -26 -26 -26 -25 -25 -25 -24 -24 -24 -23 -23 -23 -23 -23 -23 -23 -23 -23 -22 -22 -22 -22 -22 -21 -21 -22 -22 -24
-23 -23 -23 -23 -23 -23 -24 -24 -24 -25 -25 -26 -26 -26 -26 -26 -26 -26 -26 -26 -26 -26 -25 -25 -24 -24 -24 -23 -23 -23 -24 -24 -23 -23 -23 -23 -23 -22 -22 -23 -23 -23 -24 -25
-24 -24 -24 -24 -24 -24 -25 -25 -25 -26 -26 -26 -26 -26 -26 -26 -27 -27 -26 -26 -26 -26 -27 -26 -25 -25 -24 -24 -24 -24 -24 -23 -24 -24 -24 -24 -24 -24 -24 -25 -25 -25 -25 -25
-24 -24 -24 -24 -25 -25 -25 -25 -26 -26 -27 -27 -27 -27 -27 -27 -27 -27 -27 -27 -26 -26 -27 -26 -26 -25 -25 -24 -24 -24 -24 -24 -24 -24 -24 -24 -24 -25 -25 -25 -25 -25 -25 -25
-25 -25 -25 -25 -25 -26 -26 -26 -27 -27 -27 -28 -28 -27 -27 -28 -27 -28 -28 -27 -27 -27 -27 -27 -27 -26 -25 -25 -24 -24 -24 -24 -25 -25 -25 -25 -25 -24 -25 -25 -25 -25 -25 -25
-26 -26 -26 -26 -26 -27 -27 -27 -28 -28 -28 -28 -28 -28 -28 -28 -28 -28 -28 -28 -28 -28 -28 -28 -28 -27 -26 -25 -25 -24 -24 -24 -25 -25 -25 -25 -25 -24 -24 -24 -24 -24 -24 -24
-26 -27 -27 -27 -27 -27 -28 -28 -28 -28 -29 -29 -29 -29 -28 -28 -29 -29 -29 -28 -28 -28 -28 -28 -28 -28 -28 -27 -26 -25 -25 -25 -25 -25 -25 -25 -25 -25 -25 -25 -24 -24 -24 -24
-28 -28 -28 -28 -28 -28 -28 -28 -29 -29 -29 -29 -29 -29 -29 -29 -29 -29 -29 -29 -29 -29 -28 -28 -28 -28 -28 -28 -27 -27 -26 -26 -26 -25 -25 -25 -25 -25 -25 -25 -25 -25 -24 -24
-29 -29 -29 -29 -29 -29 -30 -29 -29 -30 -29 -29 -30 -29 -29 -30 -29 -29 -29 -29 -29 -29 -29 -29 -29 -28 -28 -28 -28 -28 -28 -27 -26 -26 -26 -26 -26 -25 -25 -25 -25 -25 -25 -25
-30 -30 -30 -30 -30 -30 -30 -30 -30 -30 -30 -30 -30 -30 -30 -30 -30 -30 -30 -29 -29 -29 -29 -29 -29 -29 -29 -29 -28 -28 -28 -28 -28 -27 -27 -26 -26 -26 -26 -26 -26 -26 -26 -26
-30 -30 -30 -30 -30 -30 -30 -30 -30 -30 -30 -30 -31 -30 -30 -31 -30 -30 -30 -30 -30 -30 -29 -29 -29 -29 -29 -29 -29 -29 -28 -28 -28 -28 -28 -28 -28 -27 -27 -26 -26 -26 -26 -26

GFSNGP_500_temp_249.txt.gz
Temp
-17 -17 -17 -17 -16 -16 -17 -17 -17 -17 -18 -17 -18 -18 -19 -19 -19 -20 -20 -20 -20 -20 -20 -19 -19 -19 -20 -19 -19 -18 -17 -16 -16 -16 -15 -15 -15 -14 -14 -13 -14 -14 -14 -14
-17 -17 -17 -17 -17 -17 -17 -17 -17 -17 -18 -18 -18 -18 -19 -19 -19 -20 -20 -20 -20 -20 -20 -19 -19 -18 -18 -19 -18 -17 -17 -17 -16 -16 -15 -15 -15 -15 -15 -14 -14 -13 -13 -13
-17 -17 -18 -18 -18 -18 -18 -17 -17 -18 -18 -18 -18 -18 -18 -18 -19 -19 -20 -20 -20 -20 -20 -20 -20 -19 -19 -18 -19 -18 -19 -16 -18 -16 -16 -16 -16 -15 -15 -15 -14 -14 -14 -13
-17 -17 -18 -18 -18 -18 -18 -18 -18 -18 -18 -18 -18 -18 -19 -18 -19 -19 -20 -20 -21 -21 -20 -20 -20 -20 -20 -20 -19 -19 -19 -19 -18 -18 -18 -16 -15 -16 -15 -15 -15 -15 -14 -14
-17 -18 -18 -18 -18 -18 -18 -18 -18 -18 -18 -18 -18 -18 -19 -18 -19 -19 -19 -20 -20 -20 -21 -21 -21 -20 -20 -21 -20 -20 -20 -19 -19 -18 -18 -18 -17 -16 -15 -16 -16 -15 -16 -15
-18 -18 -19 -18 -18 -18 -19 -19 -19 -19 -19 -19 -19 -19 -19 -19 -19 -20 -20 -20 -20 -21 -21 -21 -21 -21 -22 -21 -22 -22 -21 -21 -20 -19 -19 -19 -19 -19 -17 -17 -16 -16 -16 -16
-18 -18 -19 -19 -19 -19 -19 -19 -19 -19 -19 -19 -19 -19 -19 -19 -19 -19 -20 -20 -21 -21 -21 -21 -22 -22 -22 -22 -22 -22 -22 -22 -22 -21 -21 -20 -20 -20 -19 -18 -18 -17 -16 -16
-18 -18 -19 -19 -19 -19 -19 -19 -19 -19 -19 -19 -20 -19 -19 -19 -20 -20 -21 -21 -21 -21 -22 -22 -22 -22 -23 -23 -23 -23 -23 -23 -23 -23 -22 -22 -21 -21 -20 -19 -18 -19 -18 -16
-19 -19 -19 -19 -19 -19 -19 -20 -20 -20 -20 -20 -20 -20 -20 -20 -20 -20 -21 -21 -21 -21 -22 -23 -23 -23 -23 -23 -23 -23 -23 -23 -22 -22 -22 -22 -22 -22 -21 -21 -18 -18 -18 -18
-19 -19 -20 -19 -19 -20 -20 -20 -20 -20 -20 -20 -20 -20 -20 -20 -20 -20 -21 -21 -21 -22 -22 -23 -23 -24 -24 -24 -24 -23 -23 -23 -22 -22 -22 -22 -22 -22 -22 -21 -20 -19 -17 -17
-19 -19 -20 -20 -20 -20 -20 -20 -20 -20 -20 -20 -20 -20 -20 -20 -20 -21 -21 -22 -22 -22 -23 -24 -24 -24 -24 -24 -24 -24 -23 -23 -22 -22 -22 -22 -22 -22 -21 -20 -21 -21 -19 -18
-20 -20 -20 -20 -20 -20 -20 -20 -20 -20 -20 -20 -20 -20 -21 -21 -21 -22 -22 -22 -22 -23 -23 -24 -25 -25 -24 -25 -25 -24 -24 -23 -22 -22 -22 -22 -22 -22 -22 -21 -20 -20 -20 -20
-20 -20 -20 -20 -21 -20 -20 -20 -21 -21 -21 -20 -21 -21 -21 -22 -22 -22 -22 -23 -23 -23 -24 -25 -25 -25 -25 -25 -25 -24 -24 -23 -22 -22 -22 -22 -22 -22 -22 -22 -22 -21 -21 -20
-20 -21 -21 -21 -21 -21 -21 -21 -21 -21 -21 -21 -21 -21 -22 -22 -22 -23 -23 -23 -23 -23 -24 -25 -25 -25 -25 -25 -25 -25 -24 -23 -23 -23 -23 -22 -22 -23 -22 -22 -22 -22 -22 -21
-21 -21 -21 -21 -21 -21 -21 -21 -22 -21 -21 -21 -22 -22 -22 -23 -23 -23 -23 -23 -23 -23 -24 -25 -26 -26 -26 -26 -26 -25 -24 -24 -24 -23 -23 -22 -23 -23 -23 -23 -23 -22 -22 -22
-21 -21 -21 -22 -21 -21 -21 -22 -22 -22 -22 -22 -22 -23 -23 -23 -24 -24 -24 -24 -24 -24 -25 -26 -26 -26 -26 -26 -26 -25 -25 -25 -24 -24 -23 -24 -24 -24 -24 -24 -24 -23 -23 -23
-21 -21 -22 -22 -22 -22 -22 -22 -22 -22 -22 -23 -23 -23 -24 -24 -24 -24 -24 -24 -24 -24 -25 -26 -26 -26 -26 -26 -26 -26 -26 -25 -25 -24 -24 -24 -24 -24 -24 -24 -24 -24 -25 -25
-22 -22 -22 -22 -22 -22 -22 -23 -23 -23 -23 -23 -23 -24 -24 -24 -24 -25 -25 -25 -25 -25 -26 -27 -27 -27 -27 -27 -27 -27 -27 -26 -25 -25 -25 -24 -25 -25 -24 -25 -25 -25 -25 -25
-22 -22 -22 -22 -22 -23 -23 -23 -23 -23 -23 -24 -24 -24 -24 -25 -25 -25 -26 -26 -26 -27 -27 -28 -28 -28 -28 -27 -27 -28 -28 -27 -26 -25 -25 -25 -25 -25 -25 -25 -25 -25 -25 -25
-22 -22 -23 -23 -23 -23 -23 -23 -24 -24 -24 -24 -24 -25 -25 -25 -25 -26 -26 -26 -27 -27 -28 -28 -28 -28 -28 -28 -28 -28 -28 -28 -27 -27 -26 -25 -25 -25 -25 -25 -25 -25 -25 -25
-23 -23 -23 -23 -23 -24 -24 -24 -25 -25 -25 -25 -25 -26 -26 -26 -26 -26 -27 -27 -27 -28 -28 -28 -28 -28 -28 -28 -28 -28 -28 -28 -28 -28 -27 -26 -26 -26 -26 -26 -26 -25 -25 -25
-23 -23 -24 -24 -24 -24 -25 -25 -25 -26 -26 -26 -26 -26 -26 -26 -27 -27 -27 -28 -28 -29 -29 -29 -29 -29 -29 -29 -29 -28 -28 -28 -28 -28 -28 -27 -27 -26 -26 -26 -26 -26 -26 -25
-24 -24 -25 -25 -25 -25 -26 -26 -26 -26 -26 -27 -27 -27 -27 -27 -27 -28 -28 -28 -29 -29 -29 -29 -29 -29 -29 -29 -29 -29 -29 -29 -29 -28 -28 -28 -28 -27 -27 -26 -26 -26 -26 -26
-25 -25 -26 -26 -26 -26 -26 -26 -27 -27 -27 -27 -27 -27 -27 -28 -28 -28 -28 -29 -29 -30 -30 -30 -30 -30 -30 -30 -29 -29 -29 -29 -29 -29 -28 -28 -28 -28 -28 -27 -27 -27 -26 -26
-26 -26 -26 -27 -27 -27 -27 -27 -28 -28 -28 -28 -28 -28 -28 -28 -29 -29 -29 -29 -30 -30 -30 -30 -30 -30 -30 -30 -30 -30 -29 -29 -29 -29 -29 -29 -29 -29 -28 -28 -28 -28 -27 -27
-27 -27 -28 -28 -28 -28 -28 -28 -28 -29 -29 -29 -29 -29 -29 -29 -29 -30 -30 -30 -30 -30 -30 -31 -31 -31 -31 -31 -30 -30 -30 -30 -30 -29 -29 -29 -29 -29 -29 -29 -29 -28 -28 -28
-28 -29 -29 -29 -29 -29 -29 -29 -29 -29 -29 -29 -29 -29 -29 -30 -30 -30 -30 -31 -31 -31 -31 -31 -32 -32 -32 -31 -31 -31 -30 -30 -30 -30 -30 -30 -30 -30 -29 -29 -29 -29 -29 -29

GFSNGP_500_temp_252.txt.gz
Temp
-16 -16 -16 -16 -16 -16 -16 -16 -16 -16 -17 -17 -17 -17 -17 -17 -17 -17 -17 -17 -18 -18 -18 -18 -18 -18 -19 -19 -18 -18 -17 -18 -18 -19 -16 -17 -16 -16 -15 -15 -14 -14 -14 -14
-16 -16 -16 -16 -16 -16 -17 -17 -17 -17 -17 -17 -17 -17 -17 -17 -17 -17 -17 -17 -18 -18 -18 -18 -18 -18 -18 -18 -18 -18 -17 -17 -18 -18 -18 -17 -15 -17 -16 -16 -15 -15 -14 -14
-16 -16 -16 -16 -16 -16 -17 -17 -17 -17 -17 -17 -17 -17 -17 -17 -17 -18 -18 -18 -18 -18 -18 -18 -18 -18 -18 -18 -18 -19 -18 -18 -17 -17 -17 -17 -17 -16 -15 -16 -15 -16 -15 -15
-17 -17 -17 -17 -17 -17 -17 -18 -18 -18 -18 -18 -18 -18 -18 -18 -18 -18 -18 -18 -18 -18 -18 -18 -18 -19 -19 -18 -18 -18 -18 -18 -18 -18 -18 -17 -17 -16 -17 -17 -17 -15 -14 -14
-17 -17 -17 -17 -17 -17 -17 -18 -18 -18 -18 -18 -18 -18 -18 -18 -18 -18 -18 -18 -18 -18 -18 -18 -18 -19 -19 -19 -19 -19 -19 -19 -19 -19 -19 -20 -18 -17 -17 -18 -18 -17 -17 -17
-17 -17 -17 -17 -17 -17 -18 -18 -18 -18 -18 -18 -19 -18 -18 -18 -18 -19 -19 -19 -19 -19 -19 -19 -19 -19 -19 -19 -19 -20 -20 -20 -20 -21 -21 -21 -21 -20 -18 -18 -18 -19 -19 -18
-18 -18 -18 -17 -17 -18 -18 -18 -19 -19 -19 -19 -19 -19 -19 -19 -19 -19 -19 -19 -19 -19 -19 -19 -19 -19 -19 -20 -20 -20 -21 -21 -22 -22 -22 -22 -22 -22 -21 -21 -21 -19 -19 -19
-18 -18 -18 -18 -18 -18 -18 -19 -19 -19 -19 -19 -19 -19 -19 -19 -19 -19 -19 -19 -20 -19 -19 -19 -19 -19 -20 -20 -20 -20 -21 -22 -23 -23 -23 -23 -22 -22 -22 -22 -22 -21 -21 -19
-18 -18 -18 -18 -18 -18 -18 -19 -19 -19 -19 -19 -19 -20 -19 -19 -19 -19 -19 -20 -20 -20 -20 -20 -20 -20 -20 -20 -20 -21 -22 -23 -23 -23 -23 -23 -23 -22 -22 -22 -22 -21 -21 -21
-18 -19 -18 -19 -19 -19 -19 -19 -19 -19 -19 -19 -20 -20 -20 -20 -20 -20 -20 -20 -20 -20 -20 -20 -20 -20 -20 -21 -21 -22 -23 -24 -24 -24 -24 -23 -23 -22 -22 -22 -22 -21 -21 -21
-19 -19 -18 -19 -19 -19 -19 -19 -19 -19 -19 -19 -20 -20 -20 -20 -20 -20 -20 -20 -20 -21 -21 -21 -21 -21 -21 -21 -22 -23 -24 -24 -24 -24 -23 -23 -23 -22 -22 -22 -21 -21 -21 -21
-19 -18 -19 -19 -20 -19 -19 -20 -19 -19 -20 -20 -20 -20 -20 -20 -20 -20 -20 -21 -21 -21 -21 -21 -21 -21 -22 -22 -23 -24 -25 -25 -24 -24 -23 -23 -22 -23 -22 -22 -22 -22 -21 -20
-19 -19 -19 -19 -20 -20 -20 -20 -20 -20 -20 -20 -20 -20 -21 -21 -21 -21 -21 -21 -21 -22 -22 -22 -22 -22 -22 -23 -24 -25 -25 -25 -25 -24 -23 -23 -23 -23 -23 -24 -23 -22 -22 -21
-19 -19 -19 -20 -20 -20 -20 -20 -20 -20 -20 -20 -20 -21 -21 -21 -21 -21 -21 -21 -22 -22 -22 -22 -23 -23 -23 -24 -25 -26 -26 -26 -25 -24 -24 -24 -24 -23 -23 -23 -23 -24 -23 -22
-20 -19 -20 -20 -21 -21 -21 -20 -20 -20 -20 -20 -21 -21 -21 -21 -21 -22 -22 -22 -23 -23 -23 -23 -23 -23 -24 -25 -26 -26 -26 -26 -25 -25 -25 -24 -24 -24 -24 -24 -24 -24 -24 -23
-20 -20 -21 -21 -21 -21 -21 -21 -21 -21 -21 -21 -21 -22 -22 -22 -22 -22 -22 -23 -23 -24 -24 -24 -24 -24 -24 -26 -27 -27 -27 -27 -26 -26 -25 -25 -25 -24 -24 -24 -24 -24 -24 -24
-20 -21 -21 -21 -22 -21 -21 -21 -21 -21 -21 -22 -22 -22 -22 -22 -22 -23 -23 -23 -24 -24 -24 -24 -24 -24 -25 -26 -27 -27 -27 -27 -27 -27 -26 -25 -25 -25 -25 -25 -25 -25 -24 -24
-21 -21 -21 -22 -22 -22 -22 -22 -22 -22 -22 -22 -22 -23 -23 -23 -23 -23 -24 -24 -24 -24 -25 -25 -25 -25 -25 -26 -27 -28 -28 -27 -27 -27 -27 -26 -26 -25 -25 -25 -25 -25 -25 -25
-22 -22 -22 -22 -22 -22 -22 -22 -22 -22 -23 -23 -23 -23 -23 -23 -24 -24 -24 -25 -25 -25 -25 -26 -26 -26 -27 -27 -28 -28 -28 -28 -28 -28 -27 -27 -26 -26 -26 -26 -26 -25 -25 -25
-22 -22 -22 -22 -22 -22 -22 -22 -23 -23 -23 -23 -24 -24 -24 -24 -24 -25 -25 -25 -26 -26 -26 -26 -27 -27 -27 -28 -28 -28 -28 -28 -28 -28 -28 -28 -27 -27 -26 -26 -26 -26 -26 -25
-22 -22 -22 -22 -22 -22 -23 -23 -23 -24 -24 -24 -24 -24 -25 -25 -25 -26 -26 -26 -26 -26 -26 -27 -27 -28 -28 -28 -29 -29 -29 -29 -29 -29 -28 -28 -28 -28 -27 -27 -27 -26 -26 -26
-22 -22 -22 -22 -23 -23 -23 -24 -24 -24 -25 -25 -25 -25 -25 -26 -26 -26 -27 -27 -27 -27 -27 -27 -28 -28 -29 -29 -29 -29 -29 -29 -29 -29 -29 -29 -28 -28 -28 -28 -27 -27 -27 -26
-22 -23 -23 -24 -24 -24 -24 -24 -25 -25 -25 -25 -26 -26 -26 -27 -27 -27 -27 -27 -27 -28 -28 -28 -28 -29 -29 -30 -30 -30 -30 -30 -29 -29 -29 -29 -29 -29 -28 -28 -28 -28 -27 -27
-23 -23 -24 -24 -24 -25 -25 -25 -25 -26 -26 -26 -26 -27 -27 -27 -27 -28 -28 -28 -28 -28 -28 -29 -29 -30 -30 -30 -30 -30 -30 -30 -30 -30 -29 -29 -29 -29 -29 -29 -29 -29 -28 -28
-24 -24 -25 -25 -26 -26 -26 -26 -26 -27 -27 -27 -27 -28 -28 -28 -28 -28 -28 -28 -29 -29 -29 -30 -30 -30 -31 -31 -31 -31 -31 -31 -31 -30 -30 -30 -30 -30 -30 -29 -29 -29 -29 -29
-26 -26 -26 -26 -26 -26 -27 -27 -27 -28 -28 -28 -28 -28 -28 -28 -29 -29 -29 -29 -29 -30 -30 -30 -31 -31 -31 -31 -31 -32 -32 -31 -31 -31 -30 -30 -30 -30 -30 -30 -30 -30 -30 -29
-26 -27 -27 -27 -27 -27 -27 -28 -28 -28 -28 -29 -29 -29 -29 -29 -29 -29 -29 -30 -30 -30 -30 -31 -31 -31 -32 -32 -32 -32 -32 -32 -32 -31 -31 -31 -31 -31 -31 -31 -30 -30 -30 -30

GFSNGP_500_temp_255.txt.gz
Temp
-16 -15 -15 -15 -15 -16 -16 -16 -16 -16 -16 -15 -16 -16 -16 -16 -16 -16 -16 -17 -17 -17 -17 -17 -17 -17 -17 -17 -17 -17 -17 -18 -17 -17 -17 -17 -17 -17 -17 -16 -17 -16 -16 -15
-16 -16 -16 -16 -16 -16 -16 -16 -16 -16 -16 -16 -16 -16 -16 -16 -17 -17 -17 -17 -17 -17 -17 -17 -17 -17 -17 -17 -17 -18 -18 -18 -17 -17 -17 -17 -17 -17 -17 -16 -17 -17 -17 -14
-16 -16 -16 -16 -16 -16 -16 -16 -16 -16 -16 -16 -16 -17 -17 -17 -17 -17 -17 -17 -17 -17 -17 -17 -18 -18 -17 -17 -17 -17 -18 -18 -18 -18 -18 -17 -17 -18 -18 -17 -17 -18 -17 -16
-16 -16 -16 -16 -16 -16 -16 -16 -16 -16 -16 -17 -17 -17 -17 -17 -17 -17 -17 -17 -17 -17 -18 -18 -18 -18 -18 -18 -18 -18 -18 -18 -18 -18 -18 -18 -18 -18 -19 -19 -18 -17 -17 -17
-17 -16 -16 -16 -16 -16 -16 -16 -16 -17 -17 -17 -17 -17 -17 -18 -18 -18 -18 -18 -18 -18 -18 -18 -18 -18 -18 -18 -18 -18 -18 -18 -18 -18 -18 -18 -18 -18 -18 -18 -19 -19 -19 -17
-17 -17 -17 -16 -17 -16 -16 -17 -17 -17 -17 -17 -17 -18 -17 -18 -18 -18 -18 -18 -18 -18 -18 -18 -18 -19 -19 -19 -19 -19 -19 -19 -19 -19 -19 -19 -19 -19 -19 -19 -20 -21 -21 -20
-17 -17 -17 -17 -17 -17 -17 -17 -17 -17 -17 -18 -18 -18 -18 -17 -18 -18 -18 -18 -18 -18 -18 -18 -19 -19 -19 -19 -19 -19 -19 -19 -19 -19 -19 -20 -20 -20 -20 -21 -21 -22 -22 -22
-17 -17 -17 -17 -17 -17 -17 -17 -17 -18 -18 -18 -18 -18 -18 -18 -19 -18 -19 -19 -19 -19 -19 -19 -19 -19 -19 -19 -19 -19 -19 -19 -19 -20 -20 -21 -21 -22 -23 -22 -22 -22 -22 -22
-17 -18 -17 -17 -17 -18 -18 -18 -18 -18 -18 -18 -18 -18 -18 -18 -18 -19 -19 -19 -19 -19 -19 -19 -19 -19 -19 -19 -20 -19 -19 -20 -20 -20 -21 -22 -23 -23 -23 -23 -23 -22 -22 -22
-18 -17 -18 -18 -17 -18 -18 -18 -18 -18 -18 -18 -18 -18 -18 -18 -19 -19 -19 -19 -19 -20 -20 -19 -20 -20 -20 -20 -20 -20 -20 -20 -20 -21 -22 -24 -24 -24 -23 -23 -23 -22 -22 -22
-18 -18 -18 -18 -18 -18 -18 -18 -19 -18 -18 -19 -19 -19 -19 -19 -19 -19 -19 -20 -20 -20 -20 -20 -20 -20 -20 -21 -20 -20 -20 -20 -21 -22 -23 -24 -24 -24 -23 -23 -23 -23 -23 -22
-18 -18 -18 -17 -18 -18 -18 -19 -19 -19 -19 -19 -19 -19 -19 -19 -19 -20 -20 -20 -20 -20 -20 -20 -20 -21 -21 -21 -21 -21 -21 -21 -21 -22 -24 -25 -24 -24 -25 -24 -24 -23 -23 -22
-19 -18 -18 -17 -18 -18 -19 -19 -19 -19 -19 -19 -19 -19 -19 -19 -20 -20 -20 -20 -21 -21 -21 -21 -21 -21 -21 -21 -22 -22 -21 -22 -22 -23 -24 -25 -25 -24 -25 -25 -24 -24 -23 -23
-18 -18 -18 -18 -18 -19 -19 -19 -19 -19 -20 -20 -20 -20 -20 -20 -20 -20 -21 -21 -21 -21 -21 -21 -21 -22 -22 -22 -22 -22 -22 -23 -23 -24 -25 -25 -25 -25 -25 -24 -25 -25 -24 -24
-19 -19 -18 -18 -19 -19 -19 -19 -19 -20 -20 -20 -20 -20 -20 -20 -20 -21 -21 -21 -21 -21 -21 -22 -22 -22 -23 -23 -23 -23 -23 -23 -24 -25 -26 -26 -26 -26 -25 -25 -25 -25 -25 -25
-19 -19 -18 -19 -20 -20 -20 -20 -20 -20 -21 -20 -20 -20 -20 -20 -21 -21 -21 -22 -22 -22 -22 -22 -22 -23 -23 -23 -24 -24 -24 -24 -25 -25 -26 -27 -27 -26 -26 -25 -25 -25 -25 -25
-20 -19 -20 -20 -20 -20 -20 -20 -20 -21 -21 -20 -20 -20 -20 -21 -21 -21 -22 -22 -22 -22 -23 -23 -23 -23 -24 -24 -24 -24 -25 -25 -26 -26 -27 -27 -27 -27 -27 -26 -26 -25 -25 -25
-20 -20 -20 -21 -21 -20 -20 -20 -20 -21 -21 -20 -20 -20 -21 -21 -22 -22 -23 -23 -23 -23 -23 -23 -24 -24 -24 -25 -25 -25 -25 -26 -26 -27 -28 -28 -28 -28 -27 -27 -27 -26 -26 -25
-21 -21 -21 -21 -21 -21 -21 -21 -21 -21 -21 -21 -21 -21 -21 -22 -22 -23 -23 -23 -23 -24 -24 -24 -24 -25 -25 -25 -25 -26 -26 -27 -27 -28 -29 -28 -28 -28 -28 -27 -27 -27 -26 -26
-21 -21 -21 -21 -21 -21 -21 -21 -21 -21 -21 -21 -21 -22 -22 -23 -23 -23 -24 -24 -24 -24 -24 -25 -25 -25 -25 -26 -26 -27 -27 -28 -28 -29 -29 -29 -29 -29 -28 -28 -28 -27 -27 -27
-22 -22 -21 -21 -22 -22 -21 -21 -21 -21 -21 -22 -22 -22 -23 -24 -24 -24 -24 -25 -25 -25 -25 -25 -26 -26 -26 -27 -27 -27 -28 -28 -29 -30 -29 -29 -29 -29 -29 -28 -28 -28 -28 -27
-22 -22 -22 -22 -21 -22 -22 -22 -22 -22 -22 -23 -23 -23 -24 -24 -25 -25 -25 -25 -26 -26 -26 -26 -26 -26 -27 -27 -28 -28 -29 -29 -30 -30 -30 -30 -30 -29 -29 -29 -29 -29 -29 -28
-22 -22 -22 -22 -22 -22 -22 -22 -22 -22 -23 -24 -24 -24 -25 -25 -25 -26 -26 -26 -26 -26 -27 -27 -27 -27 -27 -28 -28 -29 -29 -30 -31 -30 -30 -30 -30 -30 -30 -29 -29 -29 -29 -29
-22 -22 -22 -22 -22 -22 -23 -23 -23 -24 -24 -24 -25 -25 -26 -26 -26 -26 -27 -27 -27 -27 -27 -27 -28 -28 -28 -29 -29 -30 -30 -31 -31 -31 -31 -31 -31 -30 -30 -30 -30 -30 -30 -30
-22 -22 -22 -23 -23 -23 -23 -23 -24 -24 -25 -25 -26 -26 -27 -27 -27 -27 -27 -27 -28 -28 -28 -28 -28 -28 -29 -29 -30 -31 -31 -31 -31 -31 -31 -31 -31 -31 -31 -30 -30 -30 -30 -30
-23 -23 -24 -24 -24 -24 -24 -25 -25 -26 -26 -26 -27 -27 -28 -28 -28 -28 -28 -28 -28 -28 -28 -29 -29 -29 -30 -30 -31 -31 -32 -32 -32 -32 -32 -32 -32 -31 -31 -31 -31 -31 -31 -31
-24 -24 -24 -24 -25 -25 -26 -26 -26 -27 -27 -27 -28 -28 -29 -29 -29 -28 -28 -28 -29 -29 -29 -29 -29 -30 -30 -31 -31 -32 -32 -32 -32 -32 -32 -32 -32 -32 -32 -32 -32 -32 -31 -31

GFSNGP_500_temp_258.txt.gz
Temp
-15 -15 -15 -15 -15 -15 -15 -15 -15 -16 -15 -15 -15 -15 -15 -15 -16 -16 -16 -16 -16 -16 -16 -16 -16 -16 -16 -16 -17 -17 -17 -17 -17 -17 -17 -17 -17 -17 -17 -17 -17 -17 -17 -17
-16 -16 -15 -15 -15 -15 -15 -15 -15 -16 -16 -15 -15 -15 -16 -16 -16 -16 -16 -16 -16 -16 -17 -17 -17 -17 -17 -17 -17 -17 -17 -17 -17 -17 -17 -17 -17 -17 -17 -17 -17 -17 -17 -17
-16 -16 -16 -15 -15 -16 -16 -16 -16 -16 -16 -16 -16 -15 -16 -16 -16 -16 -16 -16 -16 -17 -17 -17 -17 -17 -17 -17 -17 -17 -17 -17 -17 -17 -17 -17 -17 -17 -17 -18 -17 -18 -18 -18
-16 -16 -16 -16 -16 -16 -16 -16 -16 -16 -16 -16 -15 -16 -16 -16 -16 -16 -16 -16 -17 -17 -17 -17 -17 -17 -17 -17 -18 -18 -18 -18 -18 -18 -18 -17 -17 -17 -17 -18 -18 -18 -19 -19
-16 -16 -16 -16 -16 -16 -16 -16 -16 -16 -16 -16 -16 -16 -16 -16 -16 -17 -16 -17 -17 -17 -17 -17 -18 -18 -18 -18 -18 -18 -18 -18 -18 -18 -18 -18 -18 -18 -18 -18 -18 -19 -19 -19
-16 -16 -16 -16 -16 -16 -16 -16 -16 -16 -16 -16 -16 -16 -15 -17 -17 -17 -17 -17 -17 -17 -18 -18 -18 -18 -18 -18 -18 -18 -18 -18 -18 -18 -18 -18 -18 -18 -18 -18 -19 -20 -20 -21
-17 -16 -17 -16 -17 -16 -16 -16 -16 -16 -16 -16 -17 -16 -16 -17 -17 -17 -17 -17 -17 -17 -18 -18 -18 -18 -18 -18 -19 -19 -19 -19 -19 -19 -19 -19 -19 -19 -19 -19 -20 -21 -22 -23
-17 -16 -16 -16 -17 -17 -16 -17 -16 -16 -16 -16 -17 -16 -16 -17 -17 -17 -17 -17 -17 -18 -18 -18 -19 -19 -19 -19 -19 -19 -19 -19 -19 -20 -20 -19 -19 -19 -19 -20 -21 -23 -23 -23
-17 -17 -17 -17 -17 -17 -17 -17 -17 -17 -17 -17 -17 -17 -17 -17 -17 -18 -18 -18 -18 -18 -18 -18 -19 -19 -19 -19 -19 -19 -20 -20 -20 -20 -20 -20 -20 -20 -20 -21 -22 -23 -23 -23
-17 -17 -17 -17 -17 -17 -17 -17 -17 -17 -17 -18 -17 -17 -17 -17 -18 -18 -18 -18 -18 -18 -18 -19 -19 -19 -19 -20 -20 -20 -20 -20 -20 -20 -20 -20 -20 -20 -21 -22 -23 -24 -23 -24
-18 -17 -17 -17 -17 -17 -17 -17 -17 -18 -18 -18 -18 -18 -18 -17 -18 -18 -18 -18 -18 -18 -19 -19 -19 -20 -20 -20 -20 -20 -20 -21 -21 -21 -21 -21 -21 -21 -22 -24 -24 -24 -23 -24
-18 -18 -18 -18 -18 -18 -17 -18 -18 -18 -18 -18 -18 -18 -18 -18 -18 -18 -18 -19 -19 -19 -19 -19 -20 -20 -20 -20 -20 -21 -21 -21 -21 -21 -21 -21 -21 -22 -24 -25 -25 -25 -25 -24
-18 -18 -18 -18 -18 -18 -18 -18 -18 -18 -18 -18 -18 -18 -18 -18 -18 -18 -19 -19 -19 -19 -19 -20 -20 -20 -21 -21 -21 -21 -21 -21 -22 -22 -22 -22 -22 -22 -23 -25 -26 -26 -25 -25
-19 -18 -18 -18 -18 -18 -18 -18 -18 -18 -18 -18 -19 -19 -19 -19 -19 -19 -19 -19 -19 -20 -20 -20 -21 -21 -21 -21 -21 -22 -22 -22 -22 -22 -22 -22 -22 -23 -24 -25 -26 -26 -26 -26
-19 -19 -19 -18 -18 -18 -18 -18 -18 -19 -19 -19 -19 -19 -19 -19 -19 -19 -19 -19 -20 -20 -20 -21 -21 -21 -22 -22 -22 -22 -22 -23 -23 -23 -23 -23 -23 -24 -25 -26 -27 -27 -27 -27
-19 -19 -19 -18 -18 -18 -19 -19 -19 -19 -19 -19 -19 -19 -19 -19 -19 -19 -19 -20 -20 -21 -21 -21 -22 -22 -22 -22 -22 -22 -23 -23 -23 -23 -23 -24 -24 -24 -26 -27 -28 -27 -27 -27
-19 -19 -19 -18 -19 -19 -19 -19 -19 -19 -20 -20 -20 -19 -19 -19 -20 -19 -20 -20 -21 -21 -21 -22 -22 -22 -23 -23 -23 -23 -23 -24 -24 -24 -24 -24 -24 -25 -27 -28 -28 -28 -27 -27
-20 -19 -19 -19 -19 -19 -19 -20 -20 -20 -20 -20 -20 -20 -20 -20 -20 -20 -20 -21 -21 -22 -22 -23 -23 -23 -23 -23 -23 -24 -24 -24 -25 -24 -25 -25 -25 -26 -28 -29 -28 -28 -28 -28
-20 -19 -19 -19 -19 -20 -20 -20 -20 -20 -20 -20 -20 -20 -20 -20 -20 -20 -21 -21 -22 -22 -23 -23 -23 -23 -24 -24 -24 -24 -25 -25 -25 -25 -25 -26 -26 -28 -29 -29 -29 -29 -28 -28
-20 -20 -20 -20 -20 -20 -21 -21 -20 -20 -20 -21 -21 -20 -21 -20 -21 -21 -22 -22 -23 -23 -24 -24 -24 -24 -24 -25 -25 -25 -25 -26 -26 -26 -26 -27 -28 -29 -29 -29 -29 -29 -29 -29
-21 -21 -21 -21 -21 -21 -21 -21 -21 -21 -21 -21 -21 -21 -21 -21 -21 -22 -22 -23 -23 -24 -24 -25 -25 -25 -25 -25 -25 -26 -26 -26 -26 -27 -27 -28 -29 -30 -30 -30 -30 -30 -29 -29
-22 -22 -22 -22 -21 -21 -21 -21 -21 -21 -21 -21 -21 -21 -21 -22 -22 -22 -23 -24 -24 -24 -25 -25 -25 -26 -26 -26 -26 -26 -27 -27 -27 -28 -28 -29 -30 -30 -30 -30 -30 -30 -30 -30
-22 -22 -22 -22 -21 -21 -21 -21 -21 -22 -22 -22 -21 -22 -22 -22 -23 -24 -24 -24 -25 -25 -26 -26 -26 -26 -26 -26 -27 -27 -27 -28 -28 -29 -29 -30 -31 -31 -31 -31 -31 -30 -30 -30
-22 -22 -22 -22 -21 -21 -21 -22 -22 -22 -22 -22 -22 -22 -23 -24 -24 -24 -25 -25 -26 -26 -27 -26 -27 -27 -27 -27 -28 -28 -28 -28 -29 -29 -30 -31 -31 -31 -31 -31 -31 -31 -31 -31
-22 -22 -22 -22 -22 -22 -22 -22 -22 -22 -22 -23 -23 -23 -24 -25 -25 -25 -26 -26 -27 -27 -27 -27 -27 -28 -28 -28 -28 -28 -28 -29 -29 -30 -31 -32 -32 -32 -32 -32 -32 -32 -32 -32
-22 -22 -22 -22 -23 -23 -23 -22 -23 -23 -23 -23 -24 -25 -25 -26 -26 -26 -27 -27 -28 -28 -28 -28 -28 -28 -28 -29 -29 -29 -29 -30 -30 -31 -32 -32 -32 -32 -32 -32 -32 -32 -32 -32
-23 -23 -23 -23 -23 -23 -23 -23 -24 -24 -24 -25 -25 -26 -26 -26 -27 -27 -28 -28 -28 -28 -29 -29 -29 -29 -29 -29 -29 -29 -30 -31 -31 -32 -32 -32 -32 -33 -33 -33 -33 -32 -32 -32

GFSNGP_500_temp_261.txt.gz
Temp
-16 -15 -15 -15 -16 -15 -15 -15 -16 -15 -15 -15 -15 -14 -15 -15 -15 -15 -15 -15 -15 -15 -15 -16 -16 -16 -15 -15 -16 -16 -16 -16 -16 -17 -17 -16 -17 -17 -17 -17 -17 -17 -17 -17
-16 -16 -16 -16 -15 -15 -15 -16 -16 -15 -15 -14 -15 -15 -15 -15 -15 -15 -15 -15 -16 -15 -16 -16 -16 -16 -16 -16 -16 -16 -16 -16 -17 -17 -17 -17 -17 -17 -17 -17 -17 -17 -17 -17
-16 -16 -16 -16 -15 -15 -15 -15 -16 -15 -15 -15 -15 -15 -15 -15 -15 -15 -15 -16 -15 -16 -16 -16 -16 -16 -16 -16 -17 -17 -17 -17 -17 -17 -17 -17 -17 -17 -17 -18 -18 -18 -18 -18
-17 -17 -16 -15 -16 -16 -16 -16 -16 -16 -15 -15 -15 -15 -15 -15 -15 -15 -16 -16 -16 -16 -16 -16 -16 -16 -16 -17 -17 -17 -17 -17 -17 -17 -17 -17 -17 -18 -18 -18 -18 -18 -18 -18
-17 -16 -16 -16 -16 -15 -15 -15 -16 -16 -16 -16 -16 -16 -16 -16 -16 -16 -15 -16 -16 -16 -16 -16 -17 -16 -17 -17 -17 -18 -18 -17 -18 -18 -18 -18 -18 -18 -18 -18 -18 -18 -19 -19
-17 -17 -16 -16 -16 -16 -16 -16 -16 -16 -16 -16 -16 -16 -16 -16 -16 -16 -16 -16 -16 -16 -17 -17 -17 -17 -17 -17 -18 -18 -18 -18 -18 -18 -18 -18 -18 -18 -19 -19 -19 -19 -19 -19
-17 -17 -16 -16 -16 -16 -16 -16 -16 -16 -16 -16 -16 -16 -16 -16 -16 -16 -16 -16 -17 -17 -17 -17 -17 -17 -17 -18 -18 -18 -18 -18 -18 -19 -19 -19 -19 -19 -19 -19 -19 -19 -20 -20
-17 -16 -16 -16 -16 -16 -16 -16 -16 -16 -16 -16 -16 -16 -16 -16 -16 -16 -16 -16 -17 -17 -17 -18 -18 -18 -18 -18 -18 -18 -18 -19 -19 -19 -19 -19 -19 -20 -20 -20 -20 -20 -20 -21
-17 -16 -16 -16 -16 -17 -17 -17 -17 -16 -16 -16 -16 -16 -16 -16 -16 -16 -17 -17 -17 -17 -18 -18 -18 -18 -18 -18 -18 -18 -19 -19 -19 -19 -20 -20 -20 -20 -20 -21 -20 -20 -20 -21
-18 -17 -18 -17 -17 -17 -17 -17 -17 -17 -16 -16 -17 -17 -17 -17 -17 -17 -17 -17 -17 -17 -18 -18 -18 -18 -18 -18 -19 -19 -19 -19 -20 -20 -20 -20 -21 -21 -21 -21 -21 -21 -21 -21
-18 -18 -18 -17 -17 -17 -17 -17 -17 -17 -17 -17 -17 -17 -17 -17 -17 -17 -17 -17 -17 -18 -18 -18 -18 -18 -19 -19 -19 -19 -19 -20 -20 -20 -20 -21 -21 -21 -22 -22 -22 -21 -21 -21
-18 -18 -18 -18 -18 -17 -17 -17 -17 -17 -17 -17 -18 -18 -18 -18 -18 -18 -18 -18 -18 -18 -18 -18 -18 -19 -19 -19 -19 -20 -20 -20 -20 -21 -21 -21 -22 -22 -22 -22 -22 -22 -22 -23
-19 -19 -19 -19 -18 -18 -18 -18 -17 -17 -18 -18 -18 -18 -18 -18 -18 -18 -18 -18 -18 -18 -18 -18 -19 -19 -19 -20 -20 -20 -20 -21 -21 -21 -22 -22 -22 -22 -22 -23 -23 -23 -23 -24
-20 -20 -19 -19 -18 -18 -18 -18 -18 -18 -18 -18 -18 -18 -18 -18 -18 -18 -18 -18 -18 -18 -18 -19 -19 -19 -20 -20 -20 -21 -21 -21 -21 -22 -22 -22 -23 -23 -23 -23 -23 -23 -24 -25
-20 -20 -20 -19 -19 -19 -18 -18 -18 -18 -18 -18 -18 -18 -18 -19 -19 -18 -18 -18 -19 -19 -19 -19 -19 -20 -20 -20 -21 -21 -22 -22 -22 -23 -23 -23 -23 -23 -23 -23 -23 -23 -24 -27
-20 -20 -20 -19 -19 -19 -19 -18 -18 -18 -18 -18 -18 -19 -19 -19 -19 -19 -19 -19 -19 -19 -19 -20 -20 -21 -21 -21 -21 -22 -22 -22 -23 -23 -23 -23 -24 -24 -24 -24 -24 -24 -25 -27
-20 -19 -19 -19 -19 -19 -19 -19 -19 -19 -19 -19 -19 -19 -19 -19 -19 -19 -19 -19 -19 -20 -20 -20 -21 -21 -22 -22 -22 -23 -23 -23 -23 -24 -24 -24 -24 -24 -24 -24 -24 -25 -27 -28
-20 -20 -20 -20 -20 -20 -19 -19 -19 -19 -19 -19 -19 -19 -20 -19 -19 -19 -20 -19 -20 -20 -20 -21 -21 -22 -22 -23 -23 -23 -23 -24 -24 -24 -24 -24 -25 -25 -25 -24 -25 -26 -28 -29
-20 -20 -20 -20 -20 -20 -20 -19 -19 -20 -20 -19 -20 -20 -20 -20 -20 -20 -20 -20 -20 -20 -21 -21 -22 -22 -23 -23 -23 -24 -24 -24 -25 -25 -25 -25 -25 -25 -25 -25 -26 -28 -29 -30
-21 -21 -20 -20 -20 -20 -19 -20 -20 -20 -20 -20 -20 -20 -20 -20 -20 -20 -20 -21 -21 -21 -22 -22 -22 -23 -23 -24 -24 -24 -25 -25 -25 -25 -25 -26 -26 -26 -26 -26 -27 -29 -30 -30
-21 -21 -21 -20 -20 -20 -20 -20 -20 -20 -20 -20 -21 -21 -21 -21 -21 -21 -21 -21 -21 -22 -22 -23 -23 -24 -24 -25 -25 -25 -26 -26 -26 -26 -26 -26 -27 -26 -26 -27 -29 -30 -30 -30
-22 -22 -22 -21 -21 -21 -21 -21 -21 -21 -21 -21 -21 -21 -21 -21 -21 -21 -21 -22 -22 -23 -23 -24 -24 -25 -25 -25 -26 -26 -26 -26 -26 -27 -27 -27 -27 -27 -28 -29 -30 -31 -31 -31
-22 -22 -22 -21 -21 -22 -22 -22 -21 -21 -21 -21 -21 -21 -21 -22 -21 -22 -22 -22 -23 -23 -24 -25 -25 -25 -26 -26 -26 -26 -26 -27 -27 -27 -27 -28 -28 -28 -29 -30 -31 -32 -31 -31
-22 -22 -22 -22 -21 -21 -21 -21 -22 -22 -22 -22 -22 -22 -22 -22 -22 -22 -23 -23 -24 -24 -25 -25 -26 -26 -27 -27 -27 -27 -27 -27 -28 -28 -28 -28 -29 -29 -30 -31 -32 -32 -32 -32
-22 -22 -22 -22 -21 -21 -22 -22 -22 -22 -22 -22 -22 -22 -23 -23 -23 -23 -24 -24 -25 -26 -26 -27 -27 -27 -27 -27 -28 -28 -28 -28 -28 -29 -29 -29 -29 -30 -31 -32 -32 -32 -32 -33
-23 -22 -22 -22 -22 -22 -22 -22 -22 -22 -22 -22 -23 -23 -23 -23 -24 -24 -25 -25 -26 -26 -27 -27 -28 -28 -28 -28 -28 -28 -29 -29 -29 -29 -29 -30 -30 -31 -32 -32 -32 -32 -33 -33
-23 -23 -23 -23 -22 -22 -22 -23 -23 -23 -23 -23 -24 -24 -24 -24 -24 -25 -26 -26 -27 -27 -28 -28 -28 -29 -29 -29 -29 -29 -29 -29 -30 -30 -30 -31 -31 -32 -32 -33 -33 -33 -33 -33

GFSNGP_500_temp_264.txt.gz
Temp
-16 -16 -16 -16 -16 -16 -15 -15 -15 -15 -14 -14 -15 -15 -15 -15 -15 -15 -14 -14 -14 -15 -15 -15 -15 -15 -15 -15 -15 -15 -15 -15 -15 -15 -16 -16 -16 -16 -16 -16 -16 -16 -16 -16
-16 -16 -16 -16 -16 -16 -16 -16 -16 -15 -15 -15 -16 -15 -15 -15 -15 -15 -14 -14 -15 -15 -15 -15 -15 -15 -15 -16 -16 -15 -16 -16 -16 -16 -16 -16 -16 -16 -16 -17 -17 -17 -17 -17
-17 -17 -16 -17 -15 -16 -15 -16 -16 -15 -15 -15 -15 -15 -15 -15 -15 -14 -14 -15 -16 -15 -15 -16 -16 -16 -16 -16 -16 -16 -16 -16 -16 -16 -16 -16 -17 -17 -17 -17 -17 -17 -17 -17
-18 -18 -17 -15 -16 -16 -16 -16 -16 -15 -15 -15 -15 -16 -15 -15 -15 -15 -15 -16 -15 -15 -15 -16 -16 -16 -16 -16 -16 -16 -16 -16 -16 -16 -16 -17 -17 -17 -17 -17 -18 -17 -17 -18
-18 -17 -16 -16 -16 -16 -15 -15 -16 -16 -15 -15 -15 -15 -15 -16 -15 -15 -15 -15 -15 -15 -16 -16 -16 -16 -16 -16 -16 -16 -16 -17 -17 -17 -17 -17 -17 -17 -18 -18 -18 -18 -18 -18
-18 -17 -16 -15 -16 -17 -17 -16 -16 -15 -15 -15 -15 -15 -16 -16 -16 -15 -16 -16 -16 -16 -16 -16 -16 -16 -17 -17 -17 -17 -17 -17 -17 -17 -17 -17 -17 -18 -18 -18 -18 -19 -19 -19
-18 -17 -16 -16 -17 -17 -16 -15 -16 -16 -15 -15 -15 -16 -16 -16 -16 -16 -16 -16 -16 -16 -16 -16 -16 -17 -17 -17 -17 -17 -17 -17 -17 -17 -17 -18 -18 -18 -18 -18 -19 -19 -19 -20
-18 -17 -16 -17 -17 -16 -15 -16 -16 -16 -16 -16 -16 -16 -16 -16 -16 -16 -16 -16 -16 -16 -16 -16 -16 -17 -17 -17 -17 -17 -18 -18 -18 -18 -18 -18 -18 -18 -18 -19 -19 -20 -20 -20
-18 -16 -16 -17 -17 -17 -17 -17 -17 -16 -16 -16 -16 -16 -16 -16 -16 -16 -16 -16 -16 -16 -17 -17 -17 -17 -17 -17 -18 -18 -18 -18 -18 -18 -18 -18 -19 -19 -19 -19 -20 -20 -20 -20
-18 -18 -18 -18 -18 -17 -17 -17 -17 -17 -17 -17 -17 -17 -17 -17 -17 -17 -17 -17 -16 -17 -17 -17 -17 -17 -17 -18 -18 -18 -18 -18 -19 -19 -19 -19 -19 -19 -19 -20 -20 -20 -21 -21
-18 -18 -18 -18 -17 -18 -18 -17 -17 -17 -17 -17 -17 -17 -17 -17 -17 -17 -17 -17 -17 -17 -17 -17 -17 -17 -18 -18 -18 -18 -18 -19 -19 -19 -19 -19 -20 -20 -20 -20 -20 -21 -21 -21
-17 -18 -18 -18 -18 -18 -18 -18 -18 -17 -17 -17 -17 -17 -17 -17 -17 -17 -17 -17 -17 -17 -17 -18 -18 -18 -18 -18 -18 -18 -18 -19 -19 -19 -20 -20 -21 -21 -21 -21 -22 -22 -22 -22
-19 -19 -19 -19 -19 -19 -18 -18 -18 -18 -18 -18 -17 -17 -17 -17 -17 -18 -18 -18 -18 -18 -18 -18 -18 -18 -18 -18 -18 -18 -19 -19 -20 -20 -20 -21 -21 -22 -22 -23 -22 -23 -23 -23
-20 -19 -19 -19 -19 -19 -19 -19 -18 -18 -18 -18 -18 -17 -18 -18 -18 -18 -18 -18 -18 -18 -18 -18 -18 -18 -18 -19 -19 -19 -19 -20 -20 -21 -21 -21 -21 -22 -22 -23 -23 -23 -23 -24
-20 -20 -20 -20 -20 -19 -19 -19 -19 -18 -18 -18 -18 -18 -18 -18 -18 -19 -19 -19 -19 -19 -19 -18 -18 -19 -19 -19 -19 -19 -20 -20 -20 -21 -21 -22 -22 -22 -23 -23 -23 -23 -24 -24
-20 -20 -20 -20 -20 -20 -20 -19 -19 -19 -19 -19 -18 -19 -19 -19 -19 -19 -19 -19 -19 -19 -19 -19 -19 -19 -19 -19 -19 -20 -20 -21 -21 -22 -22 -22 -23 -23 -23 -24 -24 -24 -24 -24
-20 -20 -20 -20 -20 -20 -20 -20 -19 -19 -19 -19 -19 -19 -19 -19 -19 -19 -19 -19 -19 -19 -19 -19 -19 -19 -19 -20 -20 -20 -21 -21 -22 -22 -23 -23 -24 -24 -24 -24 -24 -25 -25 -25
-20 -20 -20 -20 -20 -20 -20 -20 -20 -19 -19 -19 -19 -19 -19 -19 -19 -19 -19 -19 -20 -20 -20 -20 -20 -20 -20 -20 -20 -21 -21 -22 -22 -23 -24 -24 -24 -24 -25 -25 -25 -25 -25 -25
-21 -20 -20 -20 -20 -20 -20 -20 -20 -20 -20 -20 -19 -19 -20 -20 -19 -20 -20 -20 -20 -20 -20 -20 -20 -20 -20 -21 -21 -21 -22 -23 -23 -24 -24 -25 -25 -25 -25 -25 -26 -26 -26 -26
-21 -21 -21 -21 -21 -20 -20 -20 -20 -20 -20 -20 -20 -20 -20 -20 -20 -20 -20 -20 -21 -21 -21 -21 -21 -21 -21 -21 -22 -22 -23 -24 -24 -25 -25 -25 -25 -26 -26 -26 -26 -26 -26 -27
-22 -21 -21 -21 -21 -21 -21 -21 -20 -20 -20 -20 -20 -20 -20 -20 -20 -21 -21 -21 -22 -22 -21 -21 -21 -21 -22 -22 -22 -23 -24 -24 -25 -25 -26 -26 -26 -26 -26 -27 -27 -27 -27 -28
-22 -22 -22 -21 -21 -21 -21 -21 -21 -21 -21 -21 -20 -20 -20 -20 -21 -21 -22 -21 -22 -22 -22 -22 -22 -22 -22 -23 -23 -24 -25 -25 -26 -26 -26 -27 -27 -27 -27 -28 -28 -28 -28 -29
-23 -22 -22 -22 -21 -21 -22 -22 -22 -21 -21 -21 -21 -21 -21 -21 -22 -22 -22 -22 -22 -22 -22 -22 -22 -23 -23 -24 -24 -25 -25 -26 -26 -26 -27 -27 -27 -28 -28 -28 -28 -29 -29 -30
-23 -23 -22 -22 -22 -22 -21 -21 -22 -22 -22 -22 -22 -22 -22 -22 -23 -22 -22 -22 -23 -23 -23 -23 -23 -24 -24 -25 -25 -26 -26 -27 -27 -27 -28 -28 -28 -28 -29 -29 -29 -30 -30 -31
-24 -24 -23 -22 -22 -21 -22 -22 -22 -22 -22 -23 -22 -22 -23 -23 -23 -23 -22 -23 -23 -24 -24 -24 -24 -25 -25 -26 -26 -27 -27 -27 -28 -28 -28 -28 -29 -29 -29 -29 -30 -30 -31 -32
-23 -23 -23 -22 -22 -22 -22 -22 -22 -23 -22 -22 -23 -23 -23 -23 -23 -23 -23 -24 -24 -24 -24 -25 -25 -26 -26 -27 -27 -28 -28 -28 -28 -29 -29 -29 -29 -30 -30 -30 -31 -31 -32 -33
-23 -24 -23 -23 -22 -22 -22 -22 -23 -23 -23 -23 -23 -23 -23 -23 -23 -24 -24 -24 -25 -25 -25 -26 -26 -27 -27 -28 -28 -29 -29 -29 -29 -29 -29 -30 -30 -30 -31 -31 -32 -32 -33 -33